Вернуться в каталог

SCOUT G-1 DEB

АктивенPO
NORAD 18562·DEBRIS·🇺🇸 United States

Запущен Sep 16, 1987 с Vandenberg Space Force Base

Loading…

Ближайшие Пролёты (ближайшие 24 часа)

TLE

СвежийSource: Space-Track

Эпоха: Sep 14, 2026, 04:09 UTC

1 18562U 87080H   26257.17313766  .00000198  00000-0  31765-3 0  9994
2 18562  89.8966 153.4044 0177897 263.1623 253.3488 13.40164458902452

Отслеживайте SCOUT G-1 DEB в реальном времени с AllMySat

Download on the App Store